Regional Weather Roundup
Issued by NWS

Home | Current Version | Previous Version | Text Only | Print | Product List | Glossary Off
Versions: 1 2 3 4 5 6 7 8 9 10 11 12 13 14 15 16 17 18 19 20 21 22 23 24 25 26 27 28 29 30 31 32 33 34 35 36 37 38 39 40 41 42 43 44 45 46 47 48 49 50

000
ASUS43 KLSX 020307
RWRMO

WEATHER SUMMARY FOR MISSOURI
NATIONAL WEATHER SERVICE SPRINGFIELD MO
1000 PM CDT FRI AUG 01 2014

NOTE: "FAIR" INDICATES FEW OR NO CLOUDS BELOW 12,000 FEET WITH NO
       SIGNIFICANT WEATHER AND/OR OBSTRUCTIONS TO VISIBILITY.
       CURRENT SKY AND/OR WEATHER CONDITIONS ARE NOT AVAILABLE FOR
       CHILLICOTHE AND FARMINGTON.

MOZ001>031-035>038-043-044-053-054-020400-
...NORTHERN AND WESTERN MISSOURI...

CITY           SKY/WX    TMP DP  RH WIND       PRES   REMARKS
KANSAS CTY INT CLEAR     75  63  66 SE7       30.08R
KANSAS C DTWN  CLEAR     77  63  61 E6        30.06R
LEE`S SUMMIT   CLEAR     72  63  73 E6        30.08R
ST JOSEPH      CLEAR     67  64  90 NE3       30.07R
CHILLICOTHE      N/A     68  62  81 CALM      30.09R
KIRKSVILLE     CLEAR     71  62  73 E5        30.10R

$$
MOZ066>068-077>081-088>096-101>105-020400-
...SOUTHWEST MISSOURI...

CITY           SKY/WX    TMP DP  RH WIND       PRES   REMARKS
SPRINGFIELD    PTCLDY    71  64  78 NW5       30.07R
JOPLIN         CLEAR     71  63  75 CALM      30.07R

$$
MOZ032>034-039>042-045>050-055>058-069>072-020400-
...CENTRAL MISSOURI...

CITY           SKY/WX    TMP DP  RH WIND       PRES   REMARKS
COLUMBIA       CLEAR     68  61  78 E5        30.08R
JEFFERSON CITY CLEAR     70  63  78 E3        30.07R
ROLLA          CLEAR     68  59  73 E7        30.08R
SEDALIA        CLEAR     72  60  66 E5        30.08R
WHITEMAN AFB   CLEAR     70  54  56 CALM      30.07R
OSAGE BEACH      N/A     72  57  60 NE3       30.08R

$$
MOZ051-052-059>065-020400-
...EAST CENTRAL MISSOURI...

CITY           SKY/WX    TMP DP  RH WIND       PRES   REMARKS
ST LOUIS INTL  MOCLDY    72  62  71 E6        30.09R
SPIRIT OF STL  MOCLDY    70  67  90 CALM      30.09R
ST CHARLES     PTCLDY    67  63  87 E6        30.09R

$$
MOZ072>076-082>087-097>100-106>115-020400-
...SOUTH CENTRAL AND SOUTHEAST MISSOURI...

CITY           SKY/WX    TMP DP  RH WIND       PRES   REMARKS
CAPE GIRARDEAU MOCLDY    74  68  81 N6        30.06R
FARMINGTON     CLOUDY    70  61  73 SE5       30.11R
POPLAR BLUFF   PTCLDY    70  66  87 CALM      30.04R
WEST PLAINS    CLEAR     68  64  87 CALM      30.09R

$$



USA.gov is the U.S. government's official web portal to all federal, state and local government web resources and services.